Location: Gunung Kajang
(2.4167°N, 113.7167°E)
Time: 17:11:49
(UTC+00:00)

Sea Lan Dem Rocket - Pass Details

Date: 29 May 2022
Orbit: 619 x 35926 km, 1.1° (Epoch: 07 July)

Event Time Altitude Azimuth Distance (km) Brightness Sun altitude
Rises 12:45:05 0° 267° (W) 2,870 6.3 -31.7°
Reaches altitude 10° 12:46:44 10° 266° (W) 2,047 5.4 -32.1°
Enters shadow 12:48:57 41° 259° (W) 1,127 3.6 -32.5°
